User: anonymous   Login
Location: Unspecified
(0.0000°N, 0.0000°E)
Time: 08:47:57
(UTC+00:00)
Language:

ELEKTRO-L - Orbit

View from above orbital plane
View from above orbital plane
View from above satellite
View from above satellite

Ground track
Ground track

The orbit data is extracted from the following two-line orbital elements,

1 37344U 11001A   15143.11346009 -.00000111  00000-0  10000-3 0  9990
2 37344 000.9272 080.8057 0002218 254.8277 021.4515 01.00274797 15921
Epoch (UTC): 23 May 2015 02:43:22
Eccentricity: 0.0002218
inclination: 0.9272°
perigee height: 35776 km
apogee height: 35795 km
right ascension of ascending node: 80.8057°
argument of perigee: 254.8277°
revolutions per day: 1.00274797
mean anomaly at epoch: 21.4515°
orbit number at epoch: 1592

The dashed part of the orbit path shows where the satellite is in the earth's shadow,  

DLR